Date String (YYYY-MM-DD hh:mm:ss) UTC,Instrument flags,Ambient pressure (hPa),Sample flow (lpm),Bypass flow (lpm),Sample temperature (°C),Ambient temperature (°C),ASC tube jacket temperature (°C),LED temperature (°C),Box temperature (°C),Sample RH (%),Span deviation,Mass concentration (μg/m³),Mass concentration (μg/m³),Mass concentration (μg/m³)
DateTimeUTC,F1_M11,P_M11,Q1_M11,Q2_M11,T1_M11,T2_M11,T3_M11,T4_M11,T5_M11,U1_M11,ZSPAN_M11,X0_M11,X2_M11,X1_M11
2023-01-28 17:00:00,,0819.5,5.04,0.00,22.1,20.6,00.0,31.0,23.8,14.0,0000.0,0009.25,0007.15,0006.99
2023-01-28 17:01:00,,0819.6,5.00,0.00,22.1,20.6,00.0,31.0,23.8,14.0,0000.0,0009.26,0007.16,0007.00
2023-01-28 17:02:00,,0819.6,5.02,0.00,22.1,20.6,00.0,31.0,23.8,14.1,0000.0,0009.24,0007.18,0007.03
2023-01-28 17:03:00,,0819.7,5.00,0.00,22.1,20.6,00.0,31.0,23.8,14.2,0000.0,0009.29,0007.23,0007.08
2023-01-28 17:04:00,,0819.7,5.01,0.00,22.1,20.5,00.0,31.0,23.8,14.1,0000.0,0009.34,0007.27,0007.13
2023-01-28 17:05:00,,0819.6,4.99,0.00,22.0,20.5,00.0,31.0,23.8,14.1,0000.0,0009.34,0007.29,0007.17
2023-01-28 17:06:00,,0819.7,5.00,0.00,22.0,20.5,00.0,31.0,23.8,14.1,0000.0,0009.38,0007.32,0007.19
2023-01-28 17:07:00,,0819.6,4.99,0.00,22.0,20.5,00.0,31.0,23.8,14.0,0000.0,0009.38,0007.33,0007.21
2023-01-28 17:08:00,,0819.7,5.00,0.00,22.0,20.5,00.0,31.0,23.8,14.1,0000.0,0009.40,0007.35,0007.23
2023-01-28 17:09:00,,0819.6,5.08,0.00,22.0,20.5,00.0,30.9,23.8,14.1,0000.0,0009.40,0007.37,0007.26
2023-01-28 17:10:00,,0819.6,5.01,0.00,22.0,20.5,00.0,30.9,23.7,14.0,0000.0,0009.42,0007.39,0007.29
2023-01-28 17:11:00,,0819.6,4.97,0.00,22.0,20.4,00.0,30.9,23.7,14.1,0000.0,0009.52,0007.45,0007.33
2023-01-28 17:12:00,,0819.5,5.00,0.00,22.0,20.4,00.0,30.9,23.7,14.2,0000.0,0009.53,0007.46,0007.35
2023-01-28 17:13:00,,0819.5,4.97,0.00,22.0,20.4,00.0,30.9,23.7,14.3,0000.0,0009.55,0007.47,0007.35
2023-01-28 17:14:00,,0819.6,4.99,0.00,22.0,20.7,00.0,30.9,23.8,14.4,0000.0,0009.52,0007.45,0007.34
2023-01-28 17:15:00,,0819.6,5.00,0.00,22.1,21.9,00.0,30.8,24.0,14.3,0000.0,0009.54,0007.45,0007.32
2023-01-28 17:16:00,,0819.6,5.01,0.00,22.2,22.6,00.0,30.9,24.2,14.1,0000.0,0009.56,0007.47,0007.33
2023-01-28 17:17:00,,0819.6,4.99,0.00,22.2,22.1,00.0,30.9,24.2,14.0,0000.0,0009.57,0007.47,0007.33
2023-01-28 17:18:00,,0819.5,5.01,0.00,22.2,21.7,00.0,31.0,24.1,13.9,0000.0,0009.58,0007.46,0007.31
2023-01-28 17:19:00,,0819.5,5.01,0.00,22.2,21.4,00.0,31.0,24.0,13.8,0000.0,0009.60,0007.46,0007.29
2023-01-28 17:20:00,,0819.5,5.01,0.00,22.2,21.2,00.0,31.0,24.0,13.9,0000.0,0009.68,0007.47,0007.29
2023-01-28 17:21:00,,0819.5,5.00,0.00,22.2,21.0,00.0,31.0,23.9,14.0,0000.0,0009.66,0007.45,0007.27
2023-01-28 17:22:00,,0819.6,5.01,0.00,22.1,20.8,00.0,31.0,23.9,14.0,0000.0,0009.55,0007.38,0007.22
2023-01-28 17:23:00,,0819.6,5.00,0.00,22.1,20.7,00.0,31.0,23.9,14.0,0000.0,0009.53,0007.35,0007.19
2023-01-28 17:24:00,,0819.5,5.02,0.00,22.1,20.6,00.0,31.0,23.8,14.0,0000.0,0009.75,0007.33,0007.15
2023-01-28 17:25:00,,0819.5,5.01,0.00,22.1,20.6,00.0,31.0,23.8,14.0,0000.0,0009.89,0007.31,0007.12
2023-01-28 17:26:00,,0819.5,5.01,0.00,22.1,20.5,00.0,31.0,23.8,14.1,0000.0,0009.85,0007.27,0007.10
2023-01-28 17:27:00,,0819.5,5.01,0.00,22.0,20.5,00.0,31.0,23.8,14.1,0000.0,0009.80,0007.23,0007.06
2023-01-28 17:28:00,,0819.5,5.00,0.00,22.0,20.4,00.0,31.0,23.7,14.2,0000.0,0009.91,0007.21,0007.04
2023-01-28 17:29:00,,0819.5,5.00,0.00,22.0,20.3,00.0,31.0,23.7,14.2,0000.0,0009.92,0007.20,0007.03
2023-01-28 17:30:00,,0819.5,5.01,0.00,22.0,20.3,00.0,30.9,23.7,14.3,0000.0,0009.88,0007.17,0007.02
2023-01-28 17:31:00,,0819.4,5.03,0.00,22.0,20.3,00.0,30.9,23.7,14.3,0000.0,0009.82,0007.16,0007.00
2023-01-28 17:32:00,,0819.4,5.00,0.00,21.9,20.3,00.0,30.9,23.7,14.3,0000.0,0009.82,0007.11,0006.95
2023-01-28 17:33:00,,0819.4,4.99,0.00,21.9,20.3,00.0,30.9,23.7,14.3,0000.0,0009.82,0007.10,0006.93
2023-01-28 17:34:00,,0819.4,5.01,0.00,21.9,20.5,00.0,30.9,23.7,14.3,0000.0,0009.79,0007.08,0006.92
2023-01-28 17:35:00,,0819.4,5.01,0.00,22.0,21.5,00.0,30.9,23.9,14.3,0000.0,0009.67,0007.06,0006.90
2023-01-28 17:36:00,,0819.5,5.00,0.00,22.1,22.5,00.0,30.9,24.2,14.3,0000.0,0009.39,0007.04,0006.88
2023-01-28 17:37:00,,0819.5,4.99,0.00,22.2,22.3,00.0,30.9,24.2,14.2,0000.0,0009.40,0007.02,0006.85
2023-01-28 17:38:00,,0819.5,5.00,0.00,22.3,22.0,00.0,31.0,24.2,14.2,0000.0,0009.40,0006.99,0006.82
2023-01-28 17:39:00,,0819.5,5.00,0.00,22.2,21.7,00.0,31.0,24.1,14.2,0000.0,0009.32,0006.95,0006.78
2023-01-28 17:40:00,,0819.4,4.98,0.00,22.2,21.4,00.0,31.0,24.1,14.2,0000.0,0009.18,0006.90,0006.74
2023-01-28 17:41:00,,0819.4,5.01,0.00,22.2,21.2,00.0,31.0,24.0,14.1,0000.0,0009.18,0006.87,0006.69
2023-01-28 17:42:00,,0819.4,4.99,0.00,22.2,21.0,00.0,31.0,24.0,14.0,0000.0,0009.09,0006.81,0006.65
2023-01-28 17:43:00,,0819.4,5.01,0.00,22.2,21.0,00.0,31.0,24.0,14.1,0000.0,0009.04,0006.79,0006.63
2023-01-28 17:44:00,,0819.4,5.01,0.00,22.2,20.9,00.0,31.0,24.0,14.2,0000.0,0009.04,0006.79,0006.63
2023-01-28 17:45:00,,0819.4,5.01,0.00,22.2,20.8,00.0,31.0,24.0,14.3,0000.0,0009.05,0006.80,0006.63
2023-01-28 17:46:00,,0819.3,5.02,0.00,22.2,20.8,00.0,31.1,23.9,14.2,0000.0,0009.01,0006.78,0006.61
2023-01-28 17:47:00,,0819.3,5.03,0.00,22.2,20.7,00.0,31.0,23.9,14.2,0000.0,0008.97,0006.75,0006.58
2023-01-28 17:48:00,,0819.3,5.00,0.00,22.2,20.7,00.0,31.0,23.9,14.3,0000.0,0008.94,0006.74,0006.56
2023-01-28 17:49:00,,0819.3,5.01,0.00,22.2,20.7,00.0,31.0,23.9,14.3,0000.0,0008.83,0006.69,0006.53
2023-01-28 17:50:00,,0819.3,5.02,0.00,22.2,20.6,00.0,31.0,23.9,14.2,0000.0,0008.74,0006.67,0006.51
2023-01-28 17:51:00,,0819.2,4.97,0.00,22.1,20.6,00.0,31.0,23.9,14.2,0000.0,0008.75,0006.66,0006.48
2023-01-28 17:52:00,,0819.3,5.00,0.00,22.1,20.6,00.0,31.0,23.9,14.2,0000.0,0008.73,0006.64,0006.46
2023-01-28 17:53:00,,0819.3,5.01,0.00,22.1,20.6,00.0,31.0,23.9,14.2,0000.0,0008.78,0006.64,0006.45
2023-01-28 17:54:00,,0819.3,5.01,0.00,22.1,20.6,00.0,31.0,23.9,14.3,0000.0,0008.76,0006.62,0006.42
2023-01-28 17:55:00,,0819.3,5.01,0.00,22.1,20.6,00.0,31.0,23.9,14.3,0000.0,0008.71,0006.58,0006.39
2023-01-28 17:56:00,,0819.3,5.00,0.00,22.1,20.6,00.0,31.0,23.9,14.3,0000.0,0008.67,0006.53,0006.34
2023-01-28 17:57:00,,0819.3,4.99,0.00,22.1,20.6,00.0,31.0,23.9,14.3,0000.0,0008.65,0006.50,0006.32
2023-01-28 17:58:00,,0819.3,4.99,0.00,22.1,20.7,00.0,31.0,23.9,14.3,0000.0,0008.62,0006.48,0006.30
2023-01-28 17:59:00,,0819.3,5.00,0.00,22.1,20.6,00.0,31.0,23.9,14.4,0000.0,0008.59,0006.45,0006.28
